| time (UTC) | temp C | wind direction | speed KPH | gust KPH | rain 1hr cm | rain 24hr cm | rain mn cm | humidity % | barometer mb |
| 20260903004602 | 16 | 208 | 1.6 | 0.0 | 0.00 | 0.00 | 0.00 | 23 | 1006.3 |
| 20260903003112 | 16 | 217 | 4.8 | 0.0 | 0.00 | 0.00 | 0.00 | 23 | 1006.3 |
| 20260903001557 | 17 | 284 | 3.2 | 0.0 | 0.00 | 0.00 | 0.00 | 20 | 1005.7 |
| 20260903000105 | 17 | 239 | 4.8 | 0.0 | 0.00 | 0.00 | 0.00 | 23 | 1005.8 |
| 20260902234555 | 17 | 188 | 4.8 | 0.0 | 0.00 | 0.00 | 0.00 | 21 | 1006.0 |
| 20260902233054 | 18 | 289 | 3.2 | 0.0 | 0.00 | 0.00 | 0.00 | 18 | 1005.8 |
| 20260902231554 | 18 | 258 | 3.2 | 0.0 | 0.00 | 0.00 | 0.00 | 15 | 1005.9 |
| 20260902224608 | 18 | 145 | 1.6 | 0.0 | 0.00 | 0.00 | 0.00 | 14 | 1006.2 |
| 20260902223108 | 18 | 193 | 3.2 | 0.0 | 0.00 | 0.00 | 0.00 | 16 | 1006.3 |
| 20260902221554 | 18 | 164 | 1.6 | 0.0 | 0.00 | 0.00 | 0.00 | 13 | 1006.4 |
| 20260902220049 | 18 | 144 | 3.2 | 0.0 | 0.00 | 0.00 | 0.00 | 13 | 1006.4 |
| 20260902214614 | 19 | 174 | 3.2 | 0.0 | 0.00 | 0.00 | 0.00 | 13 | 1006.4 |
| 20260902213048 | 20 | 206 | 1.6 | 0.0 | 0.00 | 0.00 | 0.00 | 15 | 1006.4 |
| 20260902211551 | 19 | 186 | 1.6 | 0.0 | 0.00 | 0.00 | 0.00 | 15 | 1006.9 |
| 20260902210048 | 19 | 126 | 1.6 | 0.0 | 0.00 | 0.00 | 0.00 | 15 | 1006.9 |
| 20260902204545 | 19 | 209 | 3.2 | 0.0 | 0.00 | 0.00 | 0.00 | 14 | 1006.4 |
| 20260902203043 | 19 | 212 | 1.6 | 0.0 | 0.00 | 0.00 | 0.00 | 12 | 1006.5 |
| 20260902201550 | 18 | 116 | 1.6 | 0.0 | 0.00 | 0.00 | 0.00 | 12 | 1007.1 |
| 20260902200040 | 18 | 114 | 0.0 | 0.0 | 0.00 | 0.00 | 0.00 | 14 | 1006.9 |
| 20260902194543 | 18 | 209 | 1.6 | 0.0 | 0.00 | 0.00 | 0.00 | 14 | 1007.1 |
| 20260902193033 | 18 | 206 | 3.2 | 0.0 | 0.00 | 0.00 | 0.00 | 13 | 1007.1 |
| 20260902191529 | 18 | 219 | 1.6 | 0.0 | 0.00 | 0.00 | 0.00 | 12 | 1007.2 |
| 20260902190024 | 17 | 128 | 0.0 | 0.0 | 0.00 | 0.00 | 0.00 | 12 | 1007.6 |
| 20260902184520 | 17 | 152 | 0.0 | 0.0 | 0.00 | 0.00 | 0.00 | 13 | 1008.1 |
| 20260902183018 | 16 | 213 | 0.0 | 0.0 | 0.00 | 0.00 | 0.00 | 13 | 1008.7 |
| 20260902181516 | 16 | 186 | 0.0 | 0.0 | 0.00 | 0.00 | 0.00 | 13 | 1008.6 |
| 20260902180014 | 16 | 141 | 1.6 | 0.0 | 0.00 | 0.00 | 0.00 | 13 | 1008.5 |
| 20260902174521 | 16 | 128 | 1.6 | 0.0 | 0.00 | 0.00 | 0.00 | 13 | 1008.2 |
| 20260902173011 | 15 | 131 | 1.6 | 0.0 | 0.00 | 0.00 | 0.00 | 13 | 1008.7 |
| 20260902171510 | 15 | 124 | 0.0 | 0.0 | 0.00 | 0.00 | 0.00 | 15 | 1008.6 |
| 20260902170007 | 14 | 151 | 0.0 | 0.0 | 0.00 | 0.00 | 0.00 | 14 | 1008.5 |
| 20260902164513 | 14 | 131 | 0.0 | 0.0 | 0.00 | 0.00 | 0.00 | 14 | 1008.5 |
| 20260902163007 | 13 | 130 | 0.0 | 0.0 | 0.00 | 0.00 | 0.00 | 15 | 1008.4 |
| 20260902161511 | 13 | 147 | 0.0 | 0.0 | 0.00 | 0.00 | 0.00 | 15 | 1008.6 |
| 20260902160001 | 13 | 199 | 1.6 | 0.0 | 0.00 | 0.00 | 0.00 | 15 | 1008.5 |
| 20260902154605 | 13 | 133 | 1.6 | 0.0 | 0.00 | 0.00 | 0.00 | 15 | 1008.3 |
| 20260902153058 | 12 | 131 | 3.2 | 0.0 | 0.00 | 0.00 | 0.00 | 15 | 1008.8 |
| 20260902151559 | 12 | 128 | 4.8 | 0.0 | 0.00 | 0.00 | 0.00 | 16 | 1008.7 |
| 20260902150055 | 11 | 168 | 1.6 | 0.0 | 0.00 | 0.00 | 0.00 | 17 | 1008.8 |
| 20260902144558 | 11 | 141 | 1.6 | 0.0 | 0.00 | 0.00 | 0.00 | 17 | 1008.7 |
| 20260902143051 | 11 | 141 | 3.2 | 0.0 | 0.00 | 0.00 | 0.00 | 17 | 1008.6 |
| 20260902141550 | 11 | 181 | 3.2 | 0.0 | 0.00 | 0.00 | 0.00 | 18 | 1008.7 |
| 20260902140049 | 11 | 208 | 1.6 | 0.0 | 0.00 | 0.00 | 0.00 | 20 | 1008.0 |
| 20260902134548 | 10 | 140 | 1.6 | 0.0 | 0.00 | 0.00 | 0.00 | 22 | 1008.0 |
| 20260902133056 | 10 | 165 | 3.2 | 0.0 | 0.00 | 0.00 | 0.00 | 22 | 1007.9 |
| 20260902131556 | 10 | 179 | 3.2 | 0.0 | 0.00 | 0.00 | 0.00 | 23 | 1007.6 |
| 20260902130044 | 11 | 172 | 3.2 | 0.0 | 0.00 | 0.00 | 0.00 | 22 | 1006.7 |
| 20260902124543 | 10 | 171 | 3.2 | 0.0 | 0.00 | 0.00 | 0.00 | 22 | 1006.5 |
| 20260902123042 | 10 | 144 | 3.2 | 0.0 | 0.00 | 0.00 | 0.00 | 22 | 1006.5 |
| 20260902121542 | 10 | 145 | 1.6 | 0.0 | 0.00 | 0.00 | 0.00 | 20 | 1006.7 |
| 20260902120041 | 10 | 178 | 1.6 | 0.0 | 0.00 | 0.00 | 0.00 | 19 | 1005.8 |
| 20260902114543 | 10 | 188 | 1.6 | 0.0 | 0.00 | 0.00 | 0.00 | 21 | 1005.8 |
| 20260902113052 | 10 | 162 | 1.6 | 0.0 | 0.00 | 0.00 | 0.00 | 23 | 1005.7 |
| 20260902111539 | 10 | 181 | 1.6 | 0.0 | 0.00 | 0.00 | 0.00 | 21 | 1005.9 |
| 20260902110038 | 10 | 202 | 0.0 | 0.0 | 0.00 | 0.00 | 0.00 | 20 | 1006.1 |
| 20260902104557 | 10 | 175 | 0.0 | 0.0 | 0.00 | 0.00 | 0.00 | 19 | 1006.2 |
| 20260902103037 | 10 | 171 | 0.0 | 0.0 | 0.00 | 0.00 | 0.00 | 17 | 1006.2 |
| 20260902101540 | 10 | 150 | 0.0 | 0.0 | 0.00 | 0.00 | 0.00 | 18 | 1006.2 |
| 20260902100034 | 10 | 202 | 0.0 | 0.0 | 0.00 | 0.00 | 0.00 | 18 | 1006.2 |
| 20260902094535 | 10 | 141 | 0.0 | 0.0 | 0.00 | 0.00 | 0.00 | 18 | 1006.1 |
| 20260902093038 | 11 | 127 | 0.0 | 0.0 | 0.00 | 0.00 | 0.00 | 18 | 1006.2 |
| 20260902091537 | 11 | 137 | 0.0 | 0.0 | 0.00 | 0.00 | 0.00 | 18 | 1006.3 |
| 20260902090032 | 11 | 131 | 0.0 | 0.0 | 0.00 | 0.00 | 0.00 | 20 | 1006.1 |
| 20260902084530 | 11 | 140 | 0.0 | 0.0 | 0.00 | 0.00 | 0.00 | 21 | 1006.3 |
| 20260902083040 | 11 | 198 | 0.0 | 0.0 | 0.00 | 0.00 | 0.00 | 22 | 1006.3 |
| 20260902081530 | 11 | 196 | 0.0 | 0.0 | 0.00 | 0.00 | 0.00 | 22 | 1006.3 |
| 20260902080026 | 11 | 176 | 0.0 | 0.0 | 0.00 | 0.00 | 0.00 | 24 | 1006.1 |
| 20260902074525 | 11 | 133 | 0.0 | 0.0 | 0.00 | 0.00 | 0.00 | 24 | 1006.1 |
| 20260902073028 | 11 | 152 | 0.0 | 0.0 | 0.00 | 0.00 | 0.00 | 24 | 1006.0 |
| 20260902071524 | 11 | 174 | 0.0 | 0.0 | 0.00 | 0.00 | 0.00 | 25 | 1006.0 |
| 20260902070022 | 11 | 143 | 0.0 | 0.0 | 0.00 | 0.00 | 0.00 | 27 | 1006.5 |
| 20260902064522 | 11 | 157 | 0.0 | 0.0 | 0.00 | 0.00 | 0.00 | 29 | 1006.6 |
| 20260902063022 | 11 | 140 | 0.0 | 0.0 | 0.00 | 0.00 | 0.00 | 34 | 1006.7 |
| 20260902061535 | 11 | 140 | 0.0 | 0.0 | 0.00 | 0.00 | 0.00 | 36 | 1006.8 |
| 20260902060020 | 11 | 130 | 0.0 | 0.0 | 0.00 | 0.00 | 0.00 | 36 | 1007.3 |
| 20260902054526 | 11 | 130 | 0.0 | 0.0 | 0.00 | 0.00 | 0.00 | 37 | 1006.9 |
| 20260902053019 | 11 | 128 | 0.0 | 0.0 | 0.00 | 0.00 | 0.00 | 36 | 1007.0 |
| 20260902051518 | 11 | 128 | 0.0 | 0.0 | 0.00 | 0.00 | 0.00 | 36 | 1007.1 |
| 20260902050018 | 11 | 126 | 0.0 | 0.0 | 0.00 | 0.00 | 0.00 | 36 | 1007.5 |
| 20260902044525 | 11 | 130 | 0.0 | 0.0 | 0.00 | 0.00 | 0.00 | 37 | 1007.4 |
| 20260902043018 | 11 | 130 | 0.0 | 0.0 | 0.00 | 0.00 | 0.00 | 38 | 1007.3 |
| 20260902041517 | 12 | 126 | 0.0 | 0.0 | 0.00 | 0.00 | 0.00 | 46 | 1007.0 |
| 20260902040016 | 12 | 150 | 0.0 | 0.0 | 0.00 | 0.00 | 0.00 | 48 | 1007.0 |
| 20260902034515 | 12 | 182 | 0.0 | 0.0 | 0.00 | 0.00 | 0.00 | 48 | 1007.0 |
| 20260902033014 | 12 | 191 | 1.6 | 0.0 | 0.00 | 0.00 | 0.00 | 47 | 1006.7 |
| 20260902031525 | 12 | 160 | 0.0 | 0.0 | 0.00 | 0.00 | 0.00 | 47 | 1006.1 |
| 20260902030013 | 12 | 130 | 1.6 | 0.0 | 0.00 | 0.00 | 0.00 | 45 | 1006.5 |
| 20260902024514 | 12 | 191 | 1.6 | 0.0 | 0.00 | 0.00 | 0.00 | 44 | 1006.6 |
| 20260902023026 | 12 | 158 | 1.6 | 0.0 | 0.00 | 0.00 | 0.00 | 39 | 1006.6 |
| 20260902021510 | 12 | 161 | 1.6 | 0.0 | 0.00 | 0.00 | 0.00 | 38 | 1006.2 |
| 20260902020018 | 13 | 158 | 0.0 | 0.0 | 0.00 | 0.00 | 0.00 | 36 | 1006.8 |
| 20260902014518 | 13 | 195 | 1.6 | 0.0 | 0.00 | 0.00 | 0.00 | 34 | 1006.5 |
| 20260902013008 | 13 | 140 | 1.6 | 0.0 | 0.00 | 0.00 | 0.00 | 35 | 1006.4 |
| 20260902011507 | 14 | 219 | 3.2 | 0.0 | 0.00 | 0.00 | 0.00 | 35 | 1006.1 |
| 20260902010010 | 15 | 126 | 3.2 | 0.0 | 0.00 | 0.00 | 0.00 | 35 | 1006.0 |